Date,TemperatureHighF,TemperatureAvgF,TemperatureLowF,DewpointHighF,DewpointAvgF,DewpointLowF,HumidityHigh,HumidityAvg,HumidityLow,PressureMaxIn,PressureMinIn,WindSpeedMaxMPH,WindSpeedAvgMPH,GustSpeedMaxMPH,PrecipitationSumIn
2012-1-1,34.2,32.8,29.8,31.0,28.6,23.2,91,84,73,29.85,29.40,33,8,33,0.44
2012-1-2,29.8,22.7,14.0,24.6,17.7,10.8,93,81,71,30.18,29.65,39,25,39,1.19
2012-1-3,19.0,11.8,7.0,12.2,-8.8,-29.6,91,53,15,30.33,29.96,26,9,26,0.21
2012-1-4,32.9,27.6,19.0,27.7,21.7,11.9,83,78,73,29.97,29.78,25,6,25,0.00
2012-1-5,35.6,31.6,27.0,28.3,26.2,23.6,88,80,70,29.91,29.47,22,3,22,0.00
2012-1-6,49.8,37.0,26.4,36.4,31.4,23.1,91,81,58,29.66,29.46,15,2,15,0.00
2012-1-7,34.9,30.3,26.1,31.5,25.3,19.6,95,81,73,30.19,29.63,27,12,27,0.00
2012-1-8,34.3,28.4,23.9,27.8,22.6,19.1,84,79,69,30.27,30.15,14,3,14,0.00
2012-1-9,40.5,33.7,24.4,33.2,28.5,20.6,92,82,71,30.16,29.68,18,4,18,0.00
2012-1-10,41.2,35.6,30.6,32.0,29.3,25.1,89,78,61,29.98,29.76,17,3,17,0.00
2012-1-11,38.8,33.8,29.7,36.2,30.7,26.4,92,88,77,29.77,29.57,11,3,11,0.00
2012-1-12,36.5,32.9,26.4,32.0,29.3,22.0,93,86,73,29.58,28.85,19,8,19,0.00
2012-1-13,26.4,16.9,11.1,22.0,12.7,4.4,92,83,65,29.99,29.38,27,17,27,0.00
2012-1-14,16.5,12.3,9.0,9.7,6.3,3.1,84,76,68,30.27,29.99,23,6,23,0.00
2012-1-15,27.7,16.2,3.2,18.3,10.7,-1.1,85,79,65,30.36,30.18,8,3,8,0.00
2012-1-16,32.7,26.3,18.0,29.5,21.3,12.6,93,81,76,30.18,29.74,11,3,11,0.00
2012-1-17,32.5,26.9,19.0,29.8,24.0,12.9,93,89,77,29.99,29.65,34,16,34,0.04
2012-1-18,24.1,17.5,9.9,15.8,11.5,5.3,90,77,66,30.17,29.78,32,5,32,0.00
2012-1-19,21.9,15.5,5.4,20.1,9.6,-1.4,93,77,64,30.05,29.53,40,16,40,0.96
2012-1-20,17.1,9.7,0.7,10.2,4.3,-4.0,83,78,67,30.19,30.05,7,1,7,0.00
2012-1-21,21.0,11.7,1.4,12.4,5.8,-3.8,85,77,66,30.28,30.14,12,3,12,0.00
2012-1-22,34.0,24.9,12.7,28.2,18.2,7.6,94,75,63,30.24,29.78,20,5,20,0.00
2012-1-23,46.6,37.0,29.5,39.1,31.3,27.6,94,81,58,29.78,29.26,19,5,19,0.47
2012-1-24,32.9,26.0,24.1,28.9,20.0,15.4,86,78,63,30.27,29.54,17,0,17,0.01
2012-1-25,35.2,27.8,24.3,26.5,22.9,20.4,88,82,69,30.33,30.12,6,0,6,0.00
2012-1-26,37.2,29.2,23.2,30.8,25.5,20.2,93,86,77,30.13,29.60,8,1,8,0.00
2012-1-27,36.3,32.6,29.1,30.7,26.5,21.7,92,79,61,29.86,29.55,20,4,20,0.00
2012-1-28,33.4,29.7,24.1,30.1,23.9,15.2,95,80,59,29.83,29.60,21,5,21,0.00
2012-1-29,26.2,24.3,20.7,20.3,16.4,12.5,82,71,64,30.12,29.82,24,11,24,0.00
2012-1-30,21.0,7.5,0.0,12.5,12.5,12.5,69,25,69,30.14,29.86,8,3,8,0.00
2012-1-31,37.9,17.3,0.0,34.4,22.2,12.5,93,45,84,29.87,29.63,10,2,10,0.04
2012-2-1,37.0,33.6,31.3,33.0,29.0,25.4,89,83,77,30.17,29.67,17,6,17,0.00
2012-2-2,35.8,32.3,30.2,31.5,27.4,25.1,93,82,73,30.38,30.16,11,2,11,9.72
2012-2-3,39.6,33.5,27.1,31.8,29.1,-1.6,91,84,25,30.46,30.38,11,2,11,9.72
2012-2-4,40.3,27.8,0.0,30.7,27.1,24.1,91,75,67,30.43,30.17,13,2,13,0.00
2012-2-5,36.0,32.6,30.2,30.7,27.8,25.9,91,83,69,30.28,30.02,15,5,15,0.00
2012-2-6,40.5,34.3,30.7,30.8,28.8,-14.0,89,81,59,30.13,29.92,20,6,20,0.00
2012-2-7,32.7,22.8,15.4,27.4,13.6,2.0,82,68,44,30.44,30.13,21,12,21,0.00
2012-2-8,34.5,24.1,14.0,19.7,14.7,9.0,83,69,42,30.38,30.05,13,4,14,0.00
2012-2-9,41.0,30.5,22.3,21.5,16.3,7.2,74,58,30,30.06,29.88,16,3,16,0.00
2012-2-10,29.7,17.9,10.6,24.1,11.1,0.0,92,75,57,30.17,29.86,22,11,22,12.11
2012-2-11,22.6,13.6,3.9,15.2,7.1,-2.5,85,75,61,30.23,30.03,30,9,30,0.00
2012-2-12,31.8,25.7,20.7,19.8,17.4,13.7,87,71,57,30.06,29.95,27,10,27,0.01
2012-2-13,37.6,29.7,22.3,21.9,13.9,9.5,68,53,36,29.96,29.84,22,3,22,0.00
2012-2-14,37.0,31.8,28.6,30.8,27.8,21.9,91,85,68,29.94,29.78,8,1,8,0.04
2012-2-15,37.9,34.1,31.1,31.8,30.0,28.6,91,85,77,30.09,29.93,4,1,4,0.01
2012-2-16,36.5,33.4,30.9,33.1,30.8,28.0,94,90,86,30.06,29.86,14,2,14,0.01
2012-2-17,39.2,32.8,28.4,29.0,24.9,20.7,92,74,50,30.02,29.94,17,3,17,0.01
2012-2-18,28.8,25.6,22.3,26.8,20.2,15.0,95,80,66,30.27,29.97,27,13,27,0.00
2012-2-19,34.5,25.1,18.1,22.3,18.0,13.1,82,75,58,30.24,30.15,10,3,10,0.00
2012-2-20,42.8,28.5,17.8,31.0,22.3,14.6,89,78,43,30.30,30.08,9,3,9,0.00
2012-2-21,39.4,32.3,27.3,32.0,25.8,21.1,89,77,58,30.08,29.46,11,4,11,0.00
2012-2-22,37.6,33.5,29.5,31.1,27.9,23.0,91,80,67,29.46,29.36,9,2,9,0.04
2012-2-23,35.4,32.1,28.9,29.2,27.2,24.9,89,82,76,29.70,29.39,12,3,12,0.01
2012-2-24,31.6,30.0,27.7,29.9,27.1,24.7,96,89,77,29.69,29.50,21,11,21,0.00
2012-2-25,28.0,24.7,21.9,26.3,16.1,7.9,93,71,46,30.28,29.68,24,16,24,0.00
2012-2-26,32.5,24.3,13.1,23.8,17.1,9.0,84,74,60,30.36,29.92,21,5,21,0.00
2012-2-27,38.3,30.8,25.5,29.0,24.1,19.3,82,76,67,30.42,29.83,32,11,32,0.02
2012-2-28,34.5,27.3,18.9,26.4,21.3,14.7,89,78,57,30.48,30.22,13,4,13,0.00
2012-2-29,37.9,31.9,29.7,33.3,27.3,17.8,98,84,59,30.22,29.55,40,21,40,0.14
2012-3-1,32.2,29.6,27.5,26.2,11.5,-19.1,81,54,14,29.87,29.55,18,5,18,0.01
2012-3-2,36.9,32.6,30.0,30.2,26.0,22.4,89,77,65,29.86,29.18,19,5,19,0.08
2012-3-3,32.5,30.6,25.0,25.0,21.6,15.5,74,69,65,29.38,29.10,7,1,7,0.00
2012-3-4,16.7,11.8,6.6,11.3,7.8,3.7,91,83,73,29.99,29.86,0,0,0,0.00
2012-3-5,21.7,15.6,9.1,16.7,10.5,3.3,91,80,63,30.31,29.99,0,0,0,0.00
2012-3-6,43.0,31.4,19.0,36.5,26.8,16.1,92,84,63,30.29,29.81,15,2,15,0.11
2012-3-7,63.0,54.0,42.4,49.7,39.9,36.0,91,61,41,29.83,29.57,11,4,11,0.05
2012-3-8,51.6,31.6,22.5,49.2,27.6,18.6,99,85,70,30.04,29.58,19,2,19,0.28
2012-3-9,29.7,24.0,15.3,27.1,17.2,9.9,92,75,58,30.51,29.96,0,0,0,0.24
2012-3-10,47.3,28.7,14.7,28.5,16.5,9.7,83,64,35,30.51,29.99,10,1,10,0.00
2012-3-11,62.2,49.5,33.8,34.3,30.9,27.1,85,53,29,30.14,30.00,12,4,13,0.00
2012-3-12,50.0,41.2,33.1,49.6,37.5,27.6,99,87,71,30.13,29.66,9,2,9,0.19
2012-3-13,51.6,44.6,34.7,43.1,36.9,28.5,87,75,55,30.05,29.69,24,5,24,0.01
2012-3-14,35.4,34.7,34.2,29.5,28.9,28.3,80,79,78,30.06,30.04,4,2,4,0.00
2012-3-15,51.6,43.9,38.3,42.1,38.4,35.1,90,81,68,30.08,30.01,8,3,8,0.00
2012-3-16,48.0,39.3,32.5,40.5,34.1,27.8,98,83,50,30.16,30.05,15,5,15,0.00
2012-3-17,45.9,40.6,38.1,40.9,39.0,37.1,99,94,79,30.11,30.01,12,4,12,0.00
2012-3-18,57.0,42.5,37.8,51.9,40.3,36.7,98,92,72,30.07,29.99,10,2,10,0.00
2012-3-19,45.3,41.2,36.7,42.6,39.3,35.4,98,93,85,30.07,29.98,14,4,14,0.00
2012-3-20,86.0,58.5,42.3,59.8,49.8,38.9,96,77,26,30.10,30.00,17,3,17,0.00
2012-3-21,86.9,62.2,44.1,58.0,50.8,39.9,97,71,26,30.14,30.05,21,3,21,0.00
2012-3-22,55.4,48.7,41.9,53.2,47.4,40.8,99,95,87,30.28,30.12,13,4,13,0.12
2012-3-23,50.9,44.7,40.5,48.0,42.7,39.1,98,93,86,30.22,30.04,24,10,24,0.28
2012-3-24,47.8,42.2,40.5,39.7,37.5,35.0,95,83,71,30.04,29.93,19,8,19,0.00
2012-3-25,46.8,41.0,33.1,40.6,35.2,23.8,91,80,68,30.26,29.92,31,11,31,0.05
2012-3-26,36.9,30.3,25.9,26.1,17.8,12.5,76,61,42,30.51,30.25,27,9,29,0.00
2012-3-27,54.5,37.8,26.8,38.1,20.7,9.3,85,51,31,30.40,29.57,17,4,17,0.00
2012-3-28,59.5,43.7,37.0,44.1,37.3,29.8,91,79,51,30.03,29.52,27,10,27,0.01
2012-3-29,37.6,34.5,29.8,31.6,26.0,22.4,81,71,61,30.24,30.02,19,7,21,0.00
2012-3-30,36.1,32.6,28.4,32.7,28.5,21.5,99,85,70,30.17,29.98,31,14,31,0.02
2012-3-31,38.5,34.5,31.3,32.5,29.4,26.7,91,82,68,30.10,29.85,18,7,18,0.00
2012-4-1,46.4,39.5,35.1,40.7,37.1,32.9,96,91,80,29.95,29.76,15,3,15,0.04
2012-4-2,43.9,38.4,30.4,37.8,32.1,19.4,99,80,41,30.12,29.94,14,7,14,0.00
2012-4-3,48.6,41.5,36.7,38.6,31.8,21.6,89,70,50,30.06,29.90,15,4,15,0.00
2012-4-4,46.0,41.3,36.7,36.0,32.7,27.9,89,72,56,30.08,29.93,23,11,23,0.00
2012-4-5,42.3,36.7,33.8,31.5,25.2,19.2,78,64,48,30.25,30.07,17,9,17,0.00
2012-4-6,48.9,38.4,29.3,35.0,29.1,24.3,96,71,41,30.37,30.25,14,4,14,0.00
2012-4-7,48.0,38.8,27.9,38.2,31.5,24.4,88,76,55,30.33,30.09,16,4,16,0.00
2012-4-8,52.9,45.0,38.7,43.7,33.2,22.7,97,66,36,30.10,29.96,24,7,24,0.09
2012-4-9,49.5,41.5,30.2,36.6,29.7,22.2,82,65,40,29.99,29.80,24,8,24,0.00
2012-4-10,39.6,37.6,35.6,34.6,31.4,28.8,87,78,69,30.02,29.82,28,16,28,0.00
2012-4-11,45.9,40.2,30.2,37.0,32.5,27.9,96,75,55,30.25,30.01,18,9,18,0.00
2012-4-12,40.8,36.8,30.2,36.5,32.6,27.0,96,85,77,30.28,30.22,14,6,14,0.00
2012-4-13,50.7,38.1,27.5,41.7,33.4,26.3,95,84,65,30.28,30.08,15,4,15,0.00
2012-4-14,66.6,50.3,41.7,49.4,42.3,34.3,92,75,51,30.09,29.76,17,4,17,0.02
2012-4-15,62.8,47.5,19.8,59.2,46.4,-5.6,99,96,33,29.82,29.58,8,3,8,16.72
2012-4-16,73.0,57.5,30.7,62.5,48.6,22.9,93,75,45,30.06,29.40,24,6,24,0.14
2012-4-17,38.8,32.8,27.5,29.3,24.2,19.5,86,71,60,30.40,30.06,26,11,26,10.93
2012-4-18,56.1,43.9,28.6,46.4,35.0,3.9,90,73,45,30.35,29.84,15,3,15,0.41
2012-4-19,46.6,42.7,39.0,41.9,37.0,33.4,96,81,69,30.07,29.92,18,7,18,0.24
2012-4-20,41.0,37.7,31.3,39.3,36.0,30.1,99,94,82,30.01,29.88,24,11,24,0.77
2012-4-21,45.5,38.6,28.9,35.1,29.4,23.3,99,71,51,30.12,30.00,14,6,14,0.01
2012-4-22,51.4,41.1,29.1,36.3,29.9,21.3,94,67,36,30.19,30.09,21,6,21,0.00
2012-4-23,50.4,44.9,40.1,33.9,30.1,23.1,77,58,38,30.10,29.65,29,16,30,0.00
2012-4-24,52.2,46.6,42.1,36.9,31.2,24.4,73,56,40,29.69,29.54,122,21,122,0.04
2012-4-25,55.4,44.6,32.0,40.5,35.5,24.9,90,72,38,29.80,29.68,11,3,11,0.00
2012-4-26,45.9,41.1,36.5,40.3,34.9,18.1,96,79,62,30.11,29.72,35,16,35,0.12
2012-4-27,45.1,40.2,34.9,32.7,25.4,17.6,83,57,40,30.30,30.11,21,11,21,0.05
2012-4-28,39.2,38.0,32.9,25.6,22.9,21.2,65,55,54,30.32,30.25,9,8,9,22.81
2012-4-29,52.5,42.5,29.1,39.0,26.8,7.9,83,58,21,30.39,30.23,12,5,12,0.00
2012-4-30,46.8,46.2,41.9,40.9,20.3,17.5,95,40,33,30.23,29.93,12,2,12,0.04
2012-5-1,61.0,46.7,41.5,49.4,42.4,39.6,96,86,51,30.06,29.94,17,5,17,0.00
2012-5-2,54.0,46.3,42.3,48.6,44.3,40.7,99,93,78,30.00,29.78,21,6,21,0.12
2012-5-3,60.4,47.3,43.2,46.5,8.5,-14.2,90,35,10,30.01,29.77,21,6,21,0.32
2012-5-4,59.4,51.6,44.6,49.5,16.9,-13.0,83,42,10,30.17,29.91,11,3,11,0.01
2012-5-5,55.6,45.4,41.5,41.9,36.1,-1.0,85,72,16,30.25,30.15,20,11,20,0.00
2012-5-6,52.3,46.6,37.8,45.5,38.7,28.5,89,75,59,30.22,30.10,14,5,14,0.13
2012-5-7,49.6,45.6,42.8,44.7,40.4,36.5,89,82,71,30.12,29.84,15,6,15,0.00
2012-5-8,57.6,48.7,18.1,49.7,43.6,21.2,93,82,63,29.85,29.76,9,2,9,11.86
2012-5-9,54.3,50.7,44.6,49.7,43.0,34.3,93,76,52,29.91,29.80,18,6,18,0.04
2012-5-10,62.2,51.2,38.1,43.5,37.7,-6.3,89,63,33,29.99,29.89,24,6,24,11.72
2012-5-11,44.6,41.7,39.0,39.1,37.4,34.8,86,85,81,30.02,29.99,2,1,2,0.00
2012-5-19,59.0,53.2,49.6,51.2,48.3,44.7,91,83,74,30.08,29.88,12,3,12,0.00
2012-5-20,94.6,76.1,50.4,58.1,51.2,42.9,93,50,23,29.92,29.73,14,3,14,0.00
2012-5-21,77.4,57.5,51.6,61.0,50.7,44.3,95,79,47,29.99,29.74,19,8,19,0.01
2012-5-22,75.0,56.5,7.7,60.6,45.0,-1.2,91,68,35,29.99,29.82,11,3,11,0.05
2012-5-23,61.7,40.4,0.0,48.2,48.2,48.2,62,41,62,29.83,29.66,0,0,0,0.05
2012-5-24,0.0,0.0,0.0,48.2,48.2,48.2,0,0,100,29.71,29.48,0,0,0,0.05
2012-5-25,75.6,63.1,0.0,60.4,50.6,37.6,79,49,33,30.00,29.46,50,4,50,0.00
2012-5-26,68.9,61.9,44.8,51.6,47.1,41.4,89,62,50,30.13,29.98,100,3,100,0.00
2012-5-27,62.1,55.3,49.1,57.1,50.3,41.1,99,85,48,30.04,29.71,99,6,99,0.12
2012-5-28,101.3,60.2,-34.6,85.3,51.9,-40.7,95,76,44,29.73,29.47,100,6,100,12.19
2012-5-29,74.1,63.9,52.0,59.9,49.7,38.8,87,63,35,29.62,29.47,22,4,22,0.01
2012-5-30,56.8,51.4,46.4,49.6,43.7,38.3,92,76,63,29.86,29.62,21,9,21,0.00
2012-5-31,59.4,51.7,42.4,46.2,41.2,34.2,93,69,48,29.95,29.85,17,5,17,0.00
2012-6-1,52.9,51.2,49.8,49.2,47.0,41.3,96,86,71,29.89,29.37,21,11,21,0.64
2012-6-2,55.8,51.0,47.7,49.8,45.8,41.6,88,83,76,29.41,29.23,24,9,24,0.32
2012-6-3,61.7,56.3,52.0,54.1,51.1,48.4,91,83,71,29.70,29.41,17,7,17,0.00
2012-6-4,64.9,57.7,48.6,55.9,51.7,45.5,94,81,62,29.90,29.69,12,3,12,0.00
2012-6-5,67.6,61.2,52.7,53.7,51.3,49.7,94,72,57,29.93,29.89,8,3,8,0.00
2012-6-6,73.6,63.5,53.2,55.9,50.9,34.4,86,66,46,29.94,29.87,98,6,98,0.04
2012-6-7,118.8,66.2,-6.3,54.3,50.5,-15.3,86,60,35,29.95,29.86,98,4,98,0.70
2012-6-8,65.8,65.8,65.8,49.6,49.6,49.6,57,57,57,29.87,29.68,1,1,1,0.00
2012-6-9,65.8,25.1,0.0,49.6,49.6,49.6,57,22,57,29.72,29.64,1,0,1,0.00
2012-6-10,113.7,72.1,0.0,62.3,58.9,-37.8,88,62,32,29.82,29.71,10,4,10,1.22
2012-6-11,91.6,76.3,65.5,66.2,62.4,56.6,92,66,36,29.77,29.58,12,3,12,1.48
2012-6-12,70.3,61.5,53.1,66.2,50.5,37.3,93,68,52,30.02,29.55,25,11,25,0.00
2012-6-13,76.1,56.9,32.0,51.0,44.7,37.6,87,65,45,30.11,30.01,27,5,27,0.76
2012-6-14,54.5,52.7,50.9,42.7,41.1,40.4,69,65,62,30.08,30.05,4,2,4,0.00
2012-6-15,64.6,62.3,60.1,61.2,59.4,56.5,93,90,86,29.96,29.94,1,0,1,0.00
2012-6-16,84.4,68.0,57.6,66.3,60.4,-19.9,96,79,48,29.99,29.68,16,4,16,1.13
2012-6-17,77.9,70.2,63.3,67.1,60.1,36.1,97,73,26,29.70,29.60,14,2,14,0.45
2012-6-18,81.3,66.4,59.7,64.7,58.2,0.7,99,77,49,29.65,29.45,125,4,125,0.50
2012-6-19,81.3,67.3,59.9,71.5,49.7,5.5,96,63,13,29.87,29.57,21,3,21,0.38
2012-6-20,91.8,82.5,68.4,71.7,68.0,63.4,86,65,50,29.83,29.65,9,2,9,0.00
2012-6-21,84.2,71.8,60.3,68.0,63.4,58.2,99,76,56,29.76,29.57,17,4,17,0.11
2012-6-22,71.6,65.0,55.9,59.7,56.8,52.2,94,76,54,29.86,29.75,13,4,13,0.00
2012-6-23,76.1,65.0,54.0,62.2,58.3,51.7,93,80,56,29.93,29.86,9,3,9,0.00
2012-6-24,72.5,65.1,60.4,65.9,59.1,49.7,96,82,59,29.88,29.80,19,6,19,0.24
2012-6-25,69.3,64.5,59.0,56.2,52.4,47.2,81,66,49,30.00,29.88,17,10,17,0.00
2012-6-26,75.4,67.7,55.8,58.0,51.4,45.4,75,58,42,29.94,29.80,14,5,14,0.00
2012-6-27,74.3,65.2,55.8,63.8,55.8,46.3,93,73,52,29.83,29.65,9,3,9,0.00
2012-6-28,81.7,71.8,61.3,69.4,64.3,58.7,94,79,54,29.65,29.54,14,3,14,0.00
2012-6-29,84.9,76.8,66.4,66.2,59.9,49.4,94,60,34,29.63,29.55,102,12,102,9.07
2012-6-30,84.7,73.9,66.6,66.4,61.7,-26.0,84,68,49,29.73,29.55,26,6,26,0.00
2012-7-1,78.6,70.9,59.7,66.7,60.5,55.7,90,71,48,29.85,29.73,8,3,8,3.39
2012-7-2,84.6,73.2,61.2,67.8,63.6,58.8,93,74,53,29.90,29.76,10,3,10,0.01
2012-7-3,83.8,76.8,68.4,70.7,65.4,59.9,94,69,56,29.76,29.61,14,3,14,0.02
2012-7-4,85.5,63.2,3.9,71.9,68.1,64.1,97,78,60,29.77,29.62,9,2,9,0.07
2012-7-5,88.0,75.4,68.2,75.6,69.5,60.5,98,83,64,29.80,29.65,12,2,12,0.27
2012-7-6,86.2,76.9,66.6,71.9,66.5,57.6,95,73,43,29.85,29.77,11,4,11,0.00
2012-7-7,77.4,71.3,63.7,67.6,64.5,61.5,99,80,66,29.90,29.80,22,8,22,0.20
2012-7-8,74.3,71.3,67.5,63.8,61.5,58.3,84,72,64,29.97,29.88,10,4,10,0.00
2012-7-9,76.6,71.3,66.4,67.1,57.9,50.4,84,65,45,29.96,29.90,18,6,18,1.51
2012-7-10,76.1,70.8,63.5,62.2,57.9,-17.2,88,66,48,30.05,29.95,12,4,12,0.00
2012-7-11,86.2,73.5,59.4,64.0,57.6,38.4,88,61,24,30.07,29.96,12,4,12,0.00
2012-7-12,87.8,75.5,62.1,67.1,61.0,-40.7,79,63,37,30.01,29.94,13,5,13,0.85
2012-7-13,91.6,71.4,-15.5,70.4,64.5,-17.5,87,71,30,29.99,29.89,108,7,108,9.56
2012-7-14,84.2,76.5,70.9,73.8,67.2,61.4,90,74,59,29.93,29.83,11,3,11,0.11
2012-7-15,79.9,73.7,67.6,72.2,69.3,65.6,97,87,75,29.88,29.82,12,3,12,0.28
2012-7-16,88.5,79.5,70.0,74.2,70.9,66.6,96,77,54,29.87,29.77,8,3,8,0.00
2012-7-17,83.7,82.1,71.2,71.6,70.9,65.0,85,70,68,29.78,29.73,14,6,14,0.00
2012-7-18,74.8,71.0,63.3,67.0,62.8,55.3,91,76,57,29.90,29.77,14,7,14,0.00
2012-7-19,71.8,67.3,-6.7,66.2,60.1,-32.9,91,79,26,29.96,29.86,129,9,129,0.00
2012-7-20,75.6,67.7,61.5,62.6,57.1,52.3,82,71,48,30.02,29.92,13,5,13,0.05
2012-7-21,85.3,72.4,61.7,70.9,62.2,51.9,91,72,53,29.94,29.79,13,3,13,0.00
2012-7-22,79.3,72.0,69.6,69.7,66.6,61.7,91,84,59,29.92,29.80,4,1,4,3.85
2012-7-23,92.3,79.3,69.3,73.1,68.1,62.1,84,70,53,29.81,29.60,18,6,18,0.00
2012-7-24,77.4,72.9,62.2,67.7,59.3,51.0,89,65,44,29.89,29.73,19,9,19,0.00
2012-7-25,75.2,63.8,2.7,63.9,59.0,2.2,98,86,54,29.86,29.43,9,2,9,1.38
2012-7-26,70.7,66.8,62.1,65.3,63.2,60.6,96,89,81,29.67,29.43,12,5,12,0.01
2012-7-27,71.8,67.2,61.0,67.3,61.8,-8.0,97,83,71,29.89,29.66,21,8,21,0.00
2012-7-28,80.2,68.7,59.4,68.9,61.1,55.0,99,78,56,30.00,29.89,8,3,8,0.00
2012-7-29,79.7,69.7,59.5,67.3,61.7,54.3,98,77,54,29.98,29.84,12,4,12,0.00
2012-7-30,87.1,74.9,-6.7,70.8,63.7,-15.1,99,71,51,29.86,29.65,25,3,25,3.40
2012-7-31,76.8,70.5,65.5,69.1,66.1,-13.2,99,87,74,29.81,29.67,20,7,20,0.01
2012-8-1,79.2,70.2,-13.5,69.4,62.5,-22.4,97,78,54,29.82,29.67,14,4,14,0.78
2012-8-2,82.6,73.4,66.2,73.0,67.1,62.4,95,81,62,29.77,29.58,17,5,17,0.01
2012-8-3,71.1,68.9,65.3,67.6,65.4,62.1,99,89,80,29.90,29.77,22,11,22,0.04
2012-8-4,88.2,72.7,64.0,74.6,68.6,62.7,99,88,56,29.88,29.64,14,2,14,0.07
2012-8-5,79.3,69.8,61.2,72.3,60.1,49.6,98,73,54,29.96,29.60,26,9,26,5.50
2012-8-6,90.7,68.9,54.9,61.0,53.8,-5.3,89,62,38,29.97,29.77,31,3,31,3.02
2012-8-7,79.7,72.0,65.8,68.3,63.4,55.9,86,75,63,29.85,29.72,16,7,16,0.00
2012-8-8,72.7,66.7,2.8,61.8,57.6,1.1,95,74,55,29.92,29.83,14,5,14,3.02
2012-8-9,69.6,68.0,64.6,64.1,59.7,54.7,92,76,61,29.91,29.84,21,10,21,0.00
2012-8-10,69.4,65.9,-4.4,60.1,55.3,-12.9,76,69,62,29.86,29.74,24,15,24,0.08
2012-8-11,69.3,66.2,62.8,62.4,58.0,54.2,84,75,65,29.79,29.71,21,10,21,0.13
2012-8-12,78.3,69.5,60.6,62.4,58.3,52.6,90,69,46,29.83,29.78,14,4,14,0.00
2012-8-13,77.4,67.9,60.6,63.6,59.9,57.4,93,77,56,29.84,29.79,13,2,13,0.00
2012-8-14,75.7,67.4,59.2,66.2,61.9,58.5,99,84,64,29.80,29.71,14,4,14,0.00
2012-8-15,73.8,65.9,61.2,63.2,59.5,53.7,98,81,55,29.77,29.75,7,2,7,0.01
2012-8-16,74.5,66.9,61.7,69.4,63.4,58.9,98,89,78,29.77,29.49,29,4,29,0.33
2012-8-17,68.2,62.4,55.4,59.2,50.8,42.3,99,68,46,29.83,29.60,27,14,27,0.12
2012-8-18,78.3,65.2,53.4,59.2,51.6,44.4,92,65,37,29.83,29.76,14,3,14,0.00
2012-8-19,68.5,62.5,52.0,58.5,49.5,38.5,95,66,38,29.85,29.80,14,6,14,0.00
2012-8-20,73.4,63.1,49.5,59.6,50.5,44.7,90,66,44,29.84,29.77,16,4,16,0.00
2012-8-21,73.0,64.1,53.1,61.9,56.3,51.8,97,77,58,29.92,29.82,11,3,11,0.00
2012-8-22,83.7,71.3,58.6,61.8,53.2,45.4,84,58,31,29.91,29.86,23,4,23,3.78
2012-8-23,82.0,69.9,-0.9,68.2,58.4,-10.3,90,69,43,29.95,29.88,17,4,17,0.00
2012-8-24,87.8,73.5,-25.4,67.8,63.4,-44.3,90,74,33,29.93,29.84,9,3,9,0.02
2012-8-25,91.6,76.2,-10.1,70.6,64.6,-11.1,95,70,39,29.93,29.85,11,3,11,0.00
2012-8-26,77.4,75.3,68.2,69.2,65.2,64.3,99,73,65,29.92,29.83,2,2,2,0.07
2012-8-27,76.1,70.9,65.5,68.2,63.7,58.7,94,79,59,29.91,29.81,14,6,14,0.00
2012-8-28,70.0,66.6,63.5,62.6,57.1,48.6,94,73,58,30.01,29.91,13,7,13,0.00
2012-8-29,72.9,62.8,50.0,63.2,54.3,47.3,93,75,48,29.99,29.83,8,3,8,0.00
2012-8-30,90.9,77.8,62.2,63.4,60.3,31.1,91,60,31,29.85,29.62,52,4,52,0.00
2012-8-31,84.9,74.9,65.8,69.4,61.9,54.9,87,65,52,29.98,29.66,18,6,18,0.00
2012-9-1,72.7,68.0,62.6,62.6,60.2,54.6,87,77,68,30.08,29.97,9,6,9,0.00
2012-9-5,72.5,65.5,60.8,67.1,63.3,57.5,97,93,80,29.68,29.57,20,5,20,0.00
2012-9-6,75.0,66.6,58.6,67.0,58.5,-5.4,98,77,58,29.77,29.67,15,5,15,12.14
2012-9-7,66.6,61.2,7.9,61.7,56.9,-13.3,99,87,37,29.77,29.63,15,2,15,0.57
2012-9-8,63.3,60.9,57.9,58.2,52.9,46.1,94,76,58,29.69,29.55,22,14,22,0.00
2012-9-9,65.1,60.1,2.1,53.4,46.2,-9.5,84,62,48,29.98,29.69,20,11,20,0.00
2012-9-10,71.6,60.7,48.9,55.3,51.3,46.4,96,73,47,30.06,29.93,10,4,10,0.00
2012-9-11,80.2,71.6,65.3,56.6,53.8,52.7,65,56,42,29.94,29.83,8,5,8,0.00
2012-9-12,79.7,79.7,79.7,55.2,55.2,55.2,45,45,45,30.04,29.85,2,2,2,0.00
2012-9-13,79.7,62.9,51.4,55.2,52.1,47.9,97,71,45,30.14,30.02,100,6,100,0.04
2012-9-14,63.9,56.2,48.0,55.5,51.5,45.9,99,86,55,30.14,30.07,22,7,22,0.13
2012-9-15,59.9,56.6,52.5,54.1,47.0,-7.3,93,71,60,30.21,30.00,14,7,14,0.38
2012-9-16,58.1,36.3,0.0,44.8,44.8,44.8,62,39,62,30.00,29.76,6,4,6,0.00
2012-9-17,73.8,41.4,0.0,62.1,53.1,44.8,99,58,55,29.77,29.60,27,4,27,0.37
2012-9-18,54.5,51.4,12.4,52.2,45.5,4.9,93,81,63,29.77,29.58,23,15,23,0.06
2012-9-19,57.4,49.6,37.2,48.1,40.4,1.6,93,72,53,29.87,29.61,17,4,18,6.11
2012-9-20,62.1,54.1,48.6,55.5,50.4,48.0,99,88,66,29.70,29.55,7,2,7,0.43
2012-9-21,60.4,51.9,44.6,54.4,48.1,43.8,99,88,65,29.70,29.60,11,2,11,0.21
2012-9-22,54.0,50.3,43.5,47.7,44.5,38.7,99,81,59,29.85,29.56,30,16,30,0.17
2012-9-23,48.0,47.7,47.3,43.2,42.3,41.2,84,82,80,29.86,29.84,21,15,21,0.00
2012-9-24,59.5,54.6,52.9,52.4,50.6,42.8,93,87,55,29.63,29.57,14,2,14,0.01
2012-9-25,55.0,52.4,50.4,50.1,47.2,43.6,94,83,71,29.79,29.63,13,5,13,0.19
2012-9-26,53.8,42.2,0.0,46.5,46.5,46.3,79,63,76,30.08,29.78,11,6,11,0.11
2012-9-27,0.0,0.0,0.0,46.5,46.5,46.5,0,0,100,30.18,30.07,0,0,0,0.11
2012-9-28,0.0,0.0,0.0,46.5,46.5,46.5,0,0,100,30.07,29.94,0,0,0,0.11
2012-9-29,57.9,28.2,0.0,53.0,48.1,46.5,95,41,71,29.95,29.90,17,2,17,2.93
2012-9-30,60.8,53.0,9.9,51.5,45.1,3.1,88,75,61,29.95,29.83,115,13,115,11.34
2012-10-1,64.0,54.6,50.0,53.8,46.7,40.7,92,75,65,29.92,29.77,10,2,16,2.51
2012-10-2,58.6,52.3,46.9,54.0,50.2,45.6,98,92,81,29.99,29.85,8,3,8,0.00
2012-10-3,59.7,54.1,45.0,57.4,51.9,44.7,99,93,71,30.03,29.98,11,4,11,0.01
2012-10-4,69.1,60.2,56.7,59.8,51.9,41.8,99,75,53,29.99,29.82,14,3,14,0.41
2012-10-5,59.4,50.9,45.9,49.0,39.8,32.9,74,66,56,29.92,29.83,21,4,21,0.00
2012-10-6,46.2,43.7,40.5,40.7,35.9,30.9,94,75,60,30.08,29.78,29,12,29,0.06
2012-10-7,47.8,40.1,32.5,39.5,34.7,30.7,95,82,56,30.09,30.01,21,4,21,0.00
2012-10-8,58.1,47.3,37.2,34.0,30.9,26.3,86,56,34,30.04,29.93,11,3,11,0.00
2012-10-9,56.3,51.2,43.5,50.1,39.8,28.6,99,67,46,29.94,29.65,11,2,11,0.21
2012-10-10,46.8,42.1,38.1,42.4,37.3,26.8,99,84,57,30.02,29.68,29,8,29,0.21
2012-10-11,46.4,40.6,35.4,42.7,35.3,28.1,99,82,66,30.14,29.83,30,8,30,0.45
2012-10-12,48.7,40.3,31.6,37.4,30.9,25.3,91,71,48,30.42,30.14,22,6,22,0.00
2012-10-13,46.8,40.5,34.0,43.3,35.2,27.2,99,82,60,30.32,29.75,9,2,9,0.34
2012-10-14,51.4,48.9,45.1,46.7,32.7,16.6,85,56,35,29.78,29.30,23,10,23,1.13
2012-10-15,46.0,44.1,41.7,39.7,35.0,28.6,83,71,55,29.91,29.33,34,19,34,0.81
2012-10-16,54.5,43.9,32.0,46.9,38.0,28.3,91,80,64,29.92,29.65,13,3,13,0.00
2012-10-17,70.5,55.9,46.4,55.8,48.0,40.7,95,76,54,29.66,29.44,14,3,14,0.00
2012-10-18,61.3,54.6,43.9,57.0,49.6,37.4,96,83,72,29.64,29.32,14,4,19,0.11
2012-10-19,54.0,47.1,43.7,46.8,39.6,34.7,83,76,60,29.65,29.59,21,4,21,0.35
2012-10-20,55.2,49.5,44.6,47.2,41.3,36.6,87,74,63,29.82,29.60,14,5,14,0.01
2012-10-21,59.4,48.7,43.7,47.0,41.1,36.9,93,76,55,30.03,29.82,11,3,11,0.01
2012-10-22,53.1,48.3,42.4,47.5,43.2,37.9,88,82,70,30.05,30.00,11,3,11,0.00
2012-10-23,52.5,51.3,48.9,45.6,43.0,38.9,83,74,61,30.05,30.00,25,12,25,0.09
2012-10-24,56.1,51.5,50.0,55.8,47.6,43.9,99,87,73,30.04,29.87,21,8,21,0.00
2012-10-25,81.0,69.0,51.4,62.7,58.4,51.0,99,73,42,29.88,29.59,18,4,18,0.01
2012-10-26,60.3,43.8,35.6,57.6,36.0,30.5,96,75,54,30.25,29.68,34,7,34,0.31
2012-10-27,44.8,42.8,36.7,36.6,30.8,26.5,82,63,53,30.29,30.23,19,10,19,0.00
2012-10-28,45.5,42.9,41.2,36.4,32.1,27.2,81,66,53,30.33,30.25,23,14,23,0.00
2012-10-29,43.9,41.3,38.8,33.3,29.9,24.9,78,65,50,30.27,30.02,30,19,30,0.00
2012-10-30,39.9,38.6,37.4,37.6,34.2,29.4,97,84,68,30.03,29.66,36,23,36,0.60
2012-10-31,42.3,39.6,37.9,37.6,34.2,31.2,92,81,73,29.67,29.59,27,19,27,0.04
2012-11-1,42.1,39.6,36.0,36.3,33.8,28.8,95,80,68,29.78,29.62,28,19,28,0.06
2012-11-2,39.7,37.2,34.7,34.9,31.0,27.2,90,78,71,30.10,29.77,28,19,28,0.01
2012-11-3,36.7,34.2,31.8,31.1,27.4,24.6,83,76,69,30.21,30.10,21,10,21,0.00
2012-11-4,36.7,34.2,32.0,30.4,28.0,25.1,85,78,70,30.23,30.18,18,8,18,0.00
2012-11-5,35.4,32.6,29.1,29.5,24.0,20.2,86,71,63,30.27,30.15,18,6,18,0.00
2012-11-6,41.7,34.7,27.0,27.0,24.7,20.6,79,67,53,30.16,29.98,11,2,11,0.00
2012-11-7,43.7,38.8,34.0,32.6,29.4,26.3,80,69,60,30.17,30.03,11,2,11,0.00
2012-11-8,48.7,40.4,30.6,37.7,33.1,27.2,88,76,62,30.16,30.02,8,2,8,0.00
2012-11-9,47.5,44.9,40.3,43.6,41.0,36.5,91,86,80,30.15,30.02,16,3,16,0.00
2012-11-10,47.8,44.2,41.4,42.7,39.0,32.4,92,82,66,30.19,29.88,36,17,36,0.45
2012-11-11,68.7,57.4,44.6,54.3,45.6,32.8,89,66,57,29.91,29.70,17,3,17,0.01
2012-11-12,56.3,39.1,24.8,53.1,35.6,23.6,97,87,68,30.08,29.72,16,2,16,0.07
2012-11-13,37.0,29.3,24.3,28.6,25.0,22.5,95,84,70,30.48,30.08,3,0,3,0.07
2012-11-14,39.9,34.2,26.8,29.0,25.9,21.5,83,72,64,30.51,30.36,8,1,8,0.01
2012-11-15,50.2,39.3,32.9,35.4,29.3,24.6,83,68,49,30.36,30.23,11,2,11,0.00
2012-11-16,42.3,36.1,28.0,38.9,29.5,21.4,91,77,54,30.49,30.30,15,6,15,0.00
2012-11-17,45.0,35.4,28.4,38.2,33.1,24.7,98,91,81,30.55,30.48,10,2,10,0.00
2012-11-18,54.7,41.9,35.1,42.6,34.8,31.1,88,77,48,30.50,30.37,16,3,16,0.00
2012-11-19,50.0,42.5,32.7,43.4,37.4,31.6,98,83,64,30.37,30.12,10,2,10,0.00
2012-11-20,50.9,45.2,40.3,44.7,40.6,35.0,96,85,67,30.14,30.07,6,1,6,0.00
2012-11-21,56.1,47.8,41.4,44.8,42.6,38.1,95,83,65,30.17,29.95,6,1,6,0.00
2012-11-22,70.0,56.4,40.3,45.8,38.7,31.3,90,56,28,29.96,29.55,11,2,11,0.00
2012-11-23,58.8,42.0,31.1,49.1,36.8,27.3,99,83,64,29.68,29.45,41,8,41,0.72
2012-12-2,41.2,38.4,31.8,37.5,35.0,29.5,93,87,80,30.09,29.68,30,2,34,1.18
2012-12-3,61.0,44.4,32.7,57.5,41.5,30.7,93,90,80,30.10,29.62,15,3,15,0.01
2012-12-4,61.7,43.7,30.7,57.8,36.7,20.6,90,77,59,30.11,29.62,36,10,36,0.09
2012-12-5,32.0,27.8,22.8,27.7,21.4,18.8,87,77,68,30.40,30.11,29,10,29,0.00
2012-12-6,37.9,31.7,23.0,31.8,24.9,19.5,86,76,63,30.29,29.82,10,3,10,0.00
2012-12-7,39.6,36.9,33.8,36.3,30.2,25.3,88,77,66,30.01,29.81,17,8,17,0.00
2012-12-8,33.8,31.8,28.2,29.6,25.7,19.4,97,78,65,30.18,29.96,19,9,19,0.00
2012-12-9,33.1,30.3,27.1,30.0,26.6,21.8,99,87,66,30.25,29.78,31,17,31,0.00
2012-12-10,29.5,25.3,22.3,28.5,21.5,16.8,99,85,73,29.87,29.63,26,14,26,0.00
2012-12-11,32.5,26.5,19.8,26.6,20.5,15.3,93,78,62,29.95,29.87,11,3,11,0.00
2012-12-12,28.0,27.5,26.6,26.6,26.3,25.6,97,95,93,30.04,29.94,3,1,3,0.00
2012-12-15,38.5,37.4,35.6,38.0,35.4,31.5,99,93,83,30.10,29.68,23,11,23,0.50
2012-12-16,41.9,39.3,36.0,38.3,36.3,34.6,98,89,83,29.68,29.52,21,2,21,0.18
2012-12-17,41.0,36.2,34.2,36.2,31.4,27.7,88,83,67,29.67,29.55,14,3,14,0.01
2012-12-18,34.2,34.2,34.2,31.0,31.0,31.0,88,88,88,29.66,29.66,1,1,2,0.01
2012-12-19,34.2,34.2,34.2,31.0,31.0,31.0,88,88,88,29.66,29.66,1,1,2,0.01
2012-12-20,37.8,34.3,30.6,35.8,32.8,28.0,99,94,82,30.08,29.31,46,20,46,2.60
2012-12-21,30.7,28.7,25.7,30.2,24.0,18.9,98,82,72,29.89,29.31,39,26,39,0.00
2012-12-22,29.7,27.2,24.4,24.0,22.8,19.9,94,83,74,29.99,29.82,32,11,32,0.00
2012-12-23,30.6,26.5,23.0,27.7,20.8,16.1,95,79,67,29.99,29.78,30,16,30,0.00
2012-12-24,28.6,26.1,22.3,26.3,21.9,18.5,98,84,75,30.06,29.93,19,4,21,0.00
2012-12-25,28.0,26.7,25.2,23.2,20.5,17.3,84,77,69,30.39,30.06,18,10,18,0.00
2012-12-26,27.7,24.7,21.7,22.6,19.2,16.5,86,79,69,30.37,30.11,21,12,21,0.00
2012-12-27,26.2,22.3,17.1,19.0,15.6,11.6,83,75,63,30.16,30.10,18,9,18,0.00
2012-12-28,25.7,21.7,16.7,21.4,17.6,12.3,95,84,76,30.13,29.99,11,3,11,0.00
2012-12-29,26.8,24.2,21.2,25.1,20.6,17.3,96,86,76,30.00,29.89,19,8,19,0.00
2012-12-30,27.5,24.9,20.8,23.9,20.9,17.1,92,85,77,30.15,29.98,19,3,19,0.00
2012-12-31,31.8,25.8,20.1,28.8,20.4,11.3,93,80,65,30.01,29.79,30,13,30,0.00
2013-1-1,24.6,19.8,10.0,18.2,14.2,6.5,88,79,66,30.10,29.95,21,5,21,0.00